Location: College Rock
(37.2713°N, 119.1740°W)
Time: 12:47:34
(UTC+00:00)

Cosmos 2278 - Pass Details

Date: 29 October 2020
Orbit: 841 x 851 km, 71.1° (Epoch: 01 December)

Event Time Altitude Azimuth Distance (km) Brightness Sun altitude
Rises 13:23:49 0° 330° (NNW) 3,403 6.5 -11.5°
Reaches altitude 10° 13:26:24 10° 323° (NW) 2,464 5.7 -11.0°
Maximum altitude 13:31:38 41° 255° (WSW) 1,210 4.1 -10.0°
Drops below altitude 10° 13:36:51 10° 187° (S) 2,450 6.2 -9.0°
Sets 13:39:24 0° 180° (S) 3,381 7.0 -8.5°
